Overview Statistics Trail Chart Weather Telemetry Raw packets
 

This is the latest recevied weather packets stored in our database for station/object N5ATR. If no packets are shown the sender has not sent any weather packets the latest 10 day(s).

<< 109 110 111 112 113 114 >>
Time Temp. Humidity Pressure Rain* Wind** Luminosity Snow
1787859225 30° C 29% 1026.3 hPa 0 mm - 754 W/m² -
1787858922 30.56° C 29% 1026.5 hPa 0 mm - 748 W/m² -
1787858617 31.11° C 29% 1026.5 hPa 0 mm - 746 W/m² -
1787858317 31.11° C 29% 1026.6 hPa 0 mm - 740 W/m² -
1787858007 30.56° C 29% 1026.6 hPa 0 mm - 735 W/m² -
1787857703 30° C 30% 1026.6 hPa 0 mm - 736 W/m² -
1787857399 30° C 31% 1026.8 hPa 0 mm - 744 W/m² -
1787857096 30° C 31% 1027 hPa 0 mm - 743 W/m² -
1787856799 30.56° C 29% 1027.1 hPa 0 mm - 630 W/m² -
1787856492 29.44° C 31% 1027.3 hPa 0 mm - 725 W/m² -
1787856188 29.44° C 31% 1027.3 hPa 0 mm - 722 W/m² -
1787855882 29.44° C 31% 1027.4 hPa 0 mm - 718 W/m² -
1787855579 29.44° C 32% 1027.3 hPa 0 mm - 713 W/m² -
1787855272 28.89° C 29% 1027.7 hPa 0 mm - 713 W/m² -
1787854968 28.89° C 33% 1028.1 hPa 0 mm - 707 W/m² -
1787854663 27.78° C 35% 1027.6 hPa 0 mm - 708 W/m² -
1787854362 27.78° C 36% 1027.7 hPa 0 mm - 703 W/m² -
1787854057 28.33° C 36% 1027.8 hPa 0 mm - 701 W/m² -
1787853757 27.78° C 38% 1028.1 hPa 0 mm - 702 W/m² -
1787853457 26.67° C 39% 1028.3 hPa 0 mm - 636 W/m² -
1787853156 26.67° C 39% 1028.3 hPa 0 mm - 695 W/m² -
1787852851 27.22° C 39% 1028.2 hPa 0 mm - 716 W/m² -
1787852551 27.22° C 39% 1028.4 hPa 0 mm - 700 W/m² -
1787852249 26.67° C 38% 1028.3 hPa 0 mm - 701 W/m² -
1787851944 26.67° C 39% 1028.6 hPa 0 mm - 629 W/m² -

* Rain latest hour (hover to see other rain measurements)
** Current wind speed in m/s (hover to see current wind gust speed)